User: anonymous
Location: PACMO
(41.3967°N, 90.3760°W)
Time: 21:12:09
(UTC-05:00)
Language:

BREEZE-M DEB (TANK) - Orbit

View from above orbital plane
View from above orbital plane
View from above satellite
View from above satellite

Ground track
Ground track

The orbit data is extracted from the following two-line orbital elements,

1 31863U 07032B   14261.97862056  .00000480  00000-0  39776-3 0  2844
2 31863 045.9353 138.1384 4992004 190.6545 152.7907 05.50753863144213
Epoch (UTC): 18 September 2014 23:29:12
Eccentricity: 0.4992004
inclination: 45.9353°
perigee height: 405 km
apogee height: 13927 km
right ascension of ascending node: 138.1384°
argument of perigee: 190.6545°
revolutions per day: 5.50753863
mean anomaly at epoch: 152.7907°
orbit number at epoch: 14421

The dashed part of the orbit path shows where the satellite is in the earth's shadow,  

DLR